Weather History for KTRL - September, 2013

Change the Weather History Date:

Saturday, September 21, 2013

  Actual Average (KDFW) Record (KDFW)
Temperature  
Mean Temperature 74 °F 76 °F  
Max Temperature 86 °F 86 °F 99 °F (1956)
Min Temperature 63 °F 65 °F 45 °F (1983)
Degree Days  
Heating Degree Days 0 0  
Month to date heating degree days 0  
Since 1 July heating degree days 0  
Cooling Degree Days 8 11  
Month to date cooling degree days 308  
Year to date cooling degree days 2490  
Growing Degree Days 24 (Base 50)    
Moisture  
Dew Point 54 °F    
Average Humidity 58    
Maximum Humidity 90    
Minimum Humidity 24    
Precipitation  
Precipitation 0.00 in 0.07 in 6.38 in (1900)
Month to date precipitation 1.85  
Year to date precipitation 25.96  
Sea Level Pressure  
Sea Level Pressure 29.90 in    
Wind  
Wind Speed 8 mph (NNE)    
Max Wind Speed 14 mph    
Max Gust Speed 20 mph    
Visibility 10 miles    
Events      
T = Trace of Precipitation, MM = Missing Value Source: NWS Daily Summary

Daily Weather History Graph

Daily Weather History Graph

Search for Another Location

Airport or City:

Trip Planner

Search our weather history database for the weather conditions in past years. The results will help you decide how hot, cold, wet, or windy it might be!

Date:

Astronomy

Sep. 21, 2013 Rise Set
Actual Time 7:12 AM CDT 7:22 PM CDT
Civil Twilight 6:48 AM CDT 7:47 PM CDT
Nautical Twilight 6:19 AM CDT 8:15 PM CDT
Astronomical Twilight 5:50 AM CDT 8:44 PM CDT
Moon 8:45 PM CDT (9/21) 9:22 AM CDT (9/21)
Length of Visible Light 12h 59m
Length of Day
12h 09m
Waning Gibbous, 94% of the Moon is Illuminated
Sep 21
Waning Gibbous
Sep 26
Last Quarter
Oct 4
New
Oct 11
First Quarter
Oct 18
Full

Hourly Weather History & Observations

Time (CDT) Temp. Dew Point Humidity Pressure Visibility Wind Dir Wind Speed Gust Speed Precip Events Conditions
12:53 AM 70.0 °F 66.9 °F 90% 29.90 in 10.0 mi North 8.1 mph - N/A   Scattered Clouds
1:53 AM 69.1 °F 64.0 °F 84% 29.90 in 10.0 mi North 8.1 mph - N/A   Clear
2:53 AM 66.9 °F 61.0 °F 81% 29.90 in 10.0 mi North 8.1 mph - N/A   Clear
3:53 AM 66.0 °F 60.1 °F 81% 29.90 in 10.0 mi North 10.4 mph - N/A   Clear
4:53 AM 64.9 °F 59.0 °F 81% 29.91 in 10.0 mi North 8.1 mph - N/A   Clear
5:53 AM 64.0 °F 60.1 °F 87% 29.91 in 10.0 mi North 9.2 mph - N/A   Clear
6:53 AM 63.0 °F 59.0 °F 87% 29.93 in 10.0 mi North 10.4 mph - N/A   Clear
7:53 AM 64.0 °F 57.9 °F 80% 29.94 in 10.0 mi NNE 11.5 mph - N/A   Clear
8:53 AM 66.9 °F 55.9 °F 68% 29.96 in 10.0 mi NNE 13.8 mph - N/A   Clear
9:53 AM 71.1 °F 53.1 °F 53% 29.96 in 10.0 mi NNE 12.7 mph - N/A   Clear
10:53 AM 75.0 °F 51.1 °F 43% 29.96 in 10.0 mi NNE 13.8 mph - N/A   Clear
11:53 AM 78.1 °F 51.1 °F 39% 29.95 in 10.0 mi NE 9.2 mph - N/A   Clear
12:53 PM 80.1 °F 48.0 °F 32% 29.93 in 10.0 mi North 11.5 mph 19.6 mph N/A   Clear
1:53 PM 82.0 °F 46.0 °F 28% 29.91 in 10.0 mi ENE 6.9 mph - N/A   Clear
2:53 PM 84.0 °F 44.1 °F 25% 29.88 in 10.0 mi NE 12.7 mph 17.3 mph N/A   Clear
3:53 PM 84.0 °F 44.1 °F 25% 29.86 in 10.0 mi NE 10.4 mph 16.1 mph N/A   Clear
4:53 PM 84.9 °F 44.1 °F 24% 29.85 in 10.0 mi ENE 5.8 mph - N/A   Clear
5:53 PM 84.0 °F 43.0 °F 24% 29.85 in 10.0 mi North 9.2 mph - N/A   Clear
6:53 PM 81.0 °F 46.0 °F 29% 29.85 in 10.0 mi NE 4.6 mph - N/A   Clear
7:53 PM 75.9 °F 46.9 °F 36% 29.86 in 10.0 mi North 3.5 mph - N/A   Clear
8:53 PM 71.1 °F 51.1 °F 49% 29.87 in 10.0 mi Calm Calm - N/A   Clear
9:53 PM 66.0 °F 55.9 °F 70% 29.88 in 10.0 mi Calm Calm - N/A   Clear
10:53 PM 64.0 °F 57.9 °F 80% 29.88 in 10.0 mi Calm Calm - N/A   Clear
11:53 PM 63.0 °F 57.9 °F 84% 29.88 in 10.0 mi Calm Calm - N/A   Clear